Location: Coll
(42.4728°N, 0.7714°E)
Time: 07:36:03
(UTC+00:00)

NOSS 3-2 (C) - Pass Details

Date: 23 October 2020
Orbit: 788 x 1424 km, 63.4° (Epoch: 23 November)

Event Time Altitude Azimuth Distance (km) Brightness Sun altitude
Exits shadow 03:42:26 35° 161° (SSE) 1,343 4.2 -29.6°
Maximum altitude 03:44:11 46° 117° (ESE) 1,163 4.1 -29.2°
Drops below altitude 10° 03:50:05 10° 46° (NE) 2,713 6.5 -28.2°
Sets 03:52:56 0° 40° (NE) 3,764 7.3 -27.7°
